Change the Weather History Date:

Saturday, January 18, 2014

  Actual Average (KBIS) Record (KBIS)
Temperature  
Mean Temperature 29 °F 12 °F  
Max Temperature 35 °F 23 °F 56 °F (1908)
Min Temperature 23 °F 2 °F -44 °F (1950)
Degree Days  
Heating Degree Days 36 52  
Month to date heating degree days 948  
Since 1 July heating degree days 4448  
Cooling Degree Days 0 0  
Month to date cooling degree days 0  
Year to date cooling degree days 0  
Moisture  
Dew Point 28 °F    
Average Humidity 91    
Maximum Humidity 100    
Minimum Humidity 80    
Precipitation  
Precipitation 0.09 in 0.01 in 0.23 in (1979)
Month to date precipitation 0.27  
Year to date precipitation 0.27  
Snow  
Snow 0.00 in 0.30 in 2.50 in (1979)
Month to date snowfall 5.6  
Since 1 July snowfall 26.1  
Snow Depth -    
Sea Level Pressure  
Sea Level Pressure 29.83 in    
Wind  
Wind Speed 21 mph (NW)    
Max Wind Speed 39 mph    
Max Gust Speed 51 mph    
Visibility 10 miles    
Events Rain , Snow    
T = Trace of Precipitation, MM = Missing Value Source: NWS Daily Summary

Daily Weather History Graph

Daily Weather History Graph

Search for Another Location

Airport or City:

Trip Planner

Search our weather history database for the weather conditions in past years. The results will help you decide how hot, cold, wet, or windy it might be!

Date:

Astronomy

Jan. 18, 2014 Rise Set
Actual Time 8:17 AM CST 5:25 PM CST
Civil Twilight 7:44 AM CST 5:59 PM CST
Nautical Twilight 7:07 AM CST 6:36 PM CST
Astronomical Twilight 6:31 AM CST 7:11 PM CST
Moon 8:21 PM CST (1/18) 9:07 AM CST (1/18)
Length of Visible Light 10h 14m
Length of Day
9h 08m
Waning Gibbous, 94% of the Moon is Illuminated
Jan 18
Waning Gibbous
Jan 23
Last Quarter
Jan 30
New
Feb 6
First Quarter
Feb 14
Full

Hourly Weather History & Observations

Time (CST) Temp. Windchill Dew Point Humidity Pressure Visibility Wind Dir Wind Speed Gust Speed Precip Events Conditions
12:15 AM 35.6 °F 23.2 °F 32.0 °F 87% 29.60 in 10.0 mi NW 26.5 mph 32.2 mph N/A   Overcast
12:35 AM 35.6 °F 23.4 °F 32.0 °F 87% 29.60 in 10.0 mi NW 25.3 mph 36.8 mph N/A   Overcast
12:55 AM 35.6 °F 23.7 °F 32.0 °F 87% 29.59 in 10.0 mi NW 24.2 mph 31.1 mph N/A   Overcast
1:15 AM 35.6 °F 23.7 °F 32.0 °F 87% 29.59 in 10.0 mi NW 24.2 mph 31.1 mph N/A   Overcast
1:35 AM 33.8 °F 20.5 °F 33.8 °F 100% 29.59 in 10.0 mi WNW 27.6 mph 35.7 mph N/A   Mostly Cloudy
1:55 AM 32.0 °F 18.9 °F 32.0 °F 100% 29.60 in 1.8 mi NW 24.2 mph 33.4 mph 0.05 in Snow Light Snow
2:15 AM 33.8 °F 20.5 °F 33.8 °F 100% 29.61 in 10.0 mi NW 27.6 mph 34.5 mph N/A Rain Light Rain
2:35 AM 33.8 °F 20.3 °F 33.8 °F 100% 29.61 in 10.0 mi NW 28.8 mph 34.5 mph N/A   Mostly Cloudy
2:55 AM 35.6 °F 22.7 °F 32.0 °F 87% 29.62 in 10.0 mi NW 28.8 mph 34.5 mph N/A   Overcast
3:15 AM 35.6 °F 22.3 °F 32.0 °F 87% 29.63 in 10.0 mi NW 31.1 mph 41.4 mph N/A   Overcast
3:35 AM 35.6 °F 21.5 °F 32.0 °F 87% 29.64 in 10.0 mi NW 35.7 mph 44.9 mph N/A   Overcast
3:55 AM 35.6 °F 23.0 °F 32.0 °F 87% 29.65 in 10.0 mi NW 27.6 mph 40.3 mph N/A   Overcast
4:15 AM 35.6 °F 22.3 °F 32.0 °F 87% 29.67 in 10.0 mi NW 31.1 mph 39.1 mph N/A   Overcast
4:35 AM 35.6 °F 23.4 °F 32.0 °F 87% 29.68 in 10.0 mi NNW 25.3 mph 38.0 mph N/A   Overcast
4:55 AM 33.8 °F 19.4 °F 32.0 °F 93% 29.70 in 6.0 mi NNW 33.4 mph 47.2 mph 0.04 in Rain Light Rain
5:15 AM 33.8 °F 20.5 °F 32.0 °F 93% 29.72 in 10.0 mi NNW 27.6 mph 40.3 mph N/A   Overcast
5:35 AM 33.8 °F 22.2 °F 32.0 °F 93% 29.74 in 10.0 mi NNW 20.7 mph 40.3 mph N/A   Overcast
5:55 AM 33.8 °F 20.5 °F 32.0 °F 93% 29.75 in 10.0 mi NNW 27.6 mph 35.7 mph N/A   Overcast
6:15 AM 32.0 °F 16.0 °F 30.2 °F 93% 29.78 in 10.0 mi North 39.1 mph 50.6 mph N/A   Overcast
6:35 AM 32.0 °F 17.9 °F 28.4 °F 87% 29.81 in 10.0 mi North 28.8 mph 44.9 mph N/A   Overcast
6:55 AM 32.0 °F 18.4 °F 28.4 °F 87% 29.83 in 10.0 mi NNW 26.5 mph 39.1 mph N/A   Overcast
7:15 AM 32.0 °F 18.9 °F 28.4 °F 87% 29.84 in 10.0 mi NNW 24.2 mph 29.9 mph N/A   Overcast
7:35 AM 30.2 °F 16.5 °F 26.6 °F 86% 29.86 in 10.0 mi NNW 24.2 mph 36.8 mph N/A   Overcast
7:55 AM 30.2 °F 16.5 °F 26.6 °F 86% 29.88 in 10.0 mi North 24.2 mph 32.2 mph N/A   Overcast
8:15 AM 30.2 °F 16.8 °F 26.6 °F 86% 29.89 in 10.0 mi North 23.0 mph 32.2 mph N/A   Overcast
8:35 AM 30.2 °F 17.1 °F 26.6 °F 86% 29.91 in 10.0 mi North 21.9 mph 33.4 mph N/A   Overcast
8:55 AM 28.4 °F 14.7 °F 26.6 °F 93% 29.92 in 10.0 mi North 21.9 mph 32.2 mph N/A   Mostly Cloudy
9:15 AM 28.4 °F 16.2 °F 26.6 °F 93% 29.95 in 10.0 mi North 17.3 mph 26.5 mph N/A   Partly Cloudy
9:35 AM 28.4 °F 15.1 °F 26.6 °F 93% 29.97 in 10.0 mi NNW 20.7 mph 26.5 mph N/A   Scattered Clouds
9:55 AM 28.4 °F 15.8 °F 26.6 °F 93% 29.97 in 10.0 mi NNW 18.4 mph 21.9 mph N/A   Overcast
10:15 AM 28.4 °F 16.6 °F 26.6 °F 93% 29.99 in 10.0 mi NNW 16.1 mph 23.0 mph N/A   Overcast
10:35 AM 28.4 °F 17.0 °F 26.6 °F 93% 30.00 in 10.0 mi NNW 15.0 mph 20.7 mph N/A   Overcast
10:55 AM 30.2 °F 18.1 °F 26.6 °F 86% 30.00 in 10.0 mi NNW 18.4 mph 23.0 mph N/A   Overcast
11:15 AM 30.2 °F 19.3 °F 26.6 °F 86% 30.01 in 10.0 mi NNW 15.0 mph 23.0 mph N/A   Overcast
11:35 AM 30.2 °F 18.5 °F 26.6 °F 86% 30.01 in 10.0 mi NNW 17.3 mph 20.7 mph N/A   Overcast
11:55 AM 30.2 °F 19.3 °F 28.4 °F 93% 30.01 in 10.0 mi NNW 15.0 mph 20.7 mph N/A   Overcast
12:15 PM 30.2 °F 19.3 °F 28.4 °F 93% 30.00 in 10.0 mi NNW 15.0 mph 21.9 mph N/A   Overcast
12:35 PM 30.2 °F 20.2 °F 28.4 °F 93% 30.00 in 10.0 mi NW 12.7 mph - N/A   Overcast
12:55 PM 32.0 °F 21.2 °F 26.6 °F 80% 29.99 in 10.0 mi NW 16.1 mph - N/A   Overcast
1:15 PM 32.0 °F 20.8 °F 26.6 °F 80% 29.99 in 10.0 mi NW 17.3 mph - N/A   Overcast
1:35 PM 32.0 °F 20.8 °F 28.4 °F 87% 29.98 in 10.0 mi NW 17.3 mph 20.7 mph N/A   Overcast
1:55 PM 32.0 °F 20.1 °F 28.4 °F 87% 29.99 in 10.0 mi NW 19.6 mph - N/A   Overcast
2:15 PM 32.0 °F 19.8 °F 28.4 °F 87% 29.98 in 10.0 mi NW 20.7 mph 25.3 mph N/A   Overcast
2:35 PM 32.0 °F 21.6 °F 28.4 °F 87% 29.98 in 10.0 mi NW 15.0 mph - N/A   Overcast
2:55 PM 32.0 °F 24.2 °F 28.4 °F 87% 29.97 in 10.0 mi NW 9.2 mph - N/A   Overcast
3:15 PM 32.0 °F 25.6 °F 28.4 °F 87% 29.97 in 10.0 mi West 6.9 mph - N/A   Overcast
3:35 PM 32.0 °F 23.0 °F 30.2 °F 93% 29.95 in 10.0 mi West 11.5 mph - N/A   Mostly Cloudy
3:55 PM 32.0 °F 23.0 °F 28.4 °F 87% 29.94 in 10.0 mi West 11.5 mph - N/A   Partly Cloudy
4:15 PM 32.0 °F 23.6 °F 28.4 °F 87% 29.97 in 10.0 mi WNW 10.4 mph - N/A   Clear
4:35 PM 32.0 °F 24.2 °F 28.4 °F 87% 29.96 in 10.0 mi West 9.2 mph - N/A   Clear
4:55 PM 32.0 °F 24.2 °F 28.4 °F 87% 29.94 in 10.0 mi West 9.2 mph - N/A   Clear
5:15 PM 32.0 °F 24.2 °F 28.4 °F 87% 29.93 in 10.0 mi West 9.2 mph - N/A   Clear
5:35 PM 32.0 °F 24.2 °F 28.4 °F 87% 29.93 in 10.0 mi WSW 9.2 mph - N/A   Clear
5:55 PM 28.4 °F 19.1 °F 28.4 °F 100% 29.91 in 10.0 mi SW 10.4 mph - N/A   Clear
6:15 PM 28.4 °F 17.5 °F 28.4 °F 100% 29.90 in 10.0 mi WSW 13.8 mph - N/A   Clear
6:35 PM 30.2 °F 20.8 °F 28.4 °F 93% 29.88 in 10.0 mi WSW 11.5 mph - N/A   Clear
6:55 PM 28.4 °F 20.4 °F 26.6 °F 93% 29.88 in 10.0 mi SSW 8.1 mph - N/A   Clear
7:15 PM 26.6 °F 16.8 °F 26.6 °F 100% 29.87 in 10.0 mi SW 10.4 mph - N/A   Clear
7:35 PM 26.6 °F 16.8 °F 26.6 °F 100% 29.86 in 10.0 mi SW 10.4 mph - N/A   Clear
7:55 PM 28.4 °F 22.2 °F 26.6 °F 93% 29.85 in 10.0 mi WSW 5.8 mph - N/A   Clear
8:15 PM 26.6 °F 21.2 °F 26.6 °F 100% 29.82 in 10.0 mi West 4.6 mph - N/A   Clear
8:35 PM 26.6 °F 22.6 °F 26.6 °F 100% 29.80 in 10.0 mi West 3.5 mph - N/A   Clear
8:55 PM 26.6 °F - 24.8 °F 93% 29.79 in 10.0 mi Calm Calm - N/A   Clear
9:15 PM 28.4 °F - 24.8 °F 86% 29.78 in 10.0 mi Calm Calm - N/A   Clear
9:35 PM 26.6 °F 22.6 °F 24.8 °F 93% 29.77 in 10.0 mi SSW 3.5 mph - N/A   Clear
9:55 PM 24.8 °F 16.9 °F 23.0 °F 93% 29.75 in 10.0 mi WSW 6.9 mph - N/A   Clear
10:15 PM 24.8 °F 19.1 °F 23.0 °F 93% 29.74 in 10.0 mi SW 4.6 mph - N/A   Clear
10:35 PM 26.6 °F 22.6 °F 24.8 °F 93% 29.74 in 10.0 mi WNW 3.5 mph - N/A   Clear
10:55 PM 26.6 °F 22.6 °F 24.8 °F 93% 29.73 in 10.0 mi NNW 3.5 mph - N/A   Clear
11:15 PM 24.8 °F - 23.0 °F 93% 29.72 in 10.0 mi Calm Calm - N/A   Clear
11:35 PM 23.0 °F 13.9 °F 23.0 °F 100% 29.70 in 10.0 mi SW 8.1 mph - N/A   Clear
11:55 PM 24.8 °F 14.0 °F 23.0 °F 93% 29.68 in 10.0 mi West 11.5 mph - N/A   Clear